Weather in Verkhny Rogachik

Ukraine / Kherson District     47°14′29″N   34°21′36″E
temp.,
°C
wind,
m/s
gust,
m/s
humid.,
%
clouds,
%
prec.,
mm/h
press.,
hPa
HPBL,
m
9 may, sun
sun900:00+9nnw91272100 0.0 1015947
03:00+7nnw71172100 0.0 1017697
06:00+7nw7108118 0.0 1018681
09:00+10nnw810585 0.0 10211390
12:00+12nnw911435 0.0 10212030
15:00+14nnw81136100 0.0 10222892
18:00+13nnw71045100 0.0 10232018
21:00+10nw59535 0.0 1025184
10 may, mon
mon1000:00+8nnw47665 0.1 1026120
03:00+7nnw35713 0.1 102768
06:00+7n36720 0.0 102798
09:00+12n57500 0.0 10271461
12:00+14nnw56395 0.0 10262045
15:00+15nnw573514 0.0 10242386
18:00+15nnw684216 0.0 10222410
21:00+11nnw595350 0.0 1022164
11 may, tue
tue1100:00+10nnw6116239 0.0 1020332
03:00+10nw81460100 0.0 1017762
06:00+9nnw81274100 0.3 1016693
09:00+11nnw71076100 0.6 1016696
12:00+13n6877100 0.1 10151139
15:00+12ne6988100 0.7 1015739
18:00+13ne786137 0.1 10151250
21:00+8nne36745 0.1 101577
12 may, wed
wed1200:00+7nne228425 0.0 101421
03:00+8nne128795 0.3 101333
06:00+8ene1186100 0.3 101330
09:00+10s3478100 0.4 1013435
12:00+15ssw4652100 0.3 10121924
15:00+17sw3646100 0.3 10121974
18:00+14s7873100 0.4 1013811
21:00+12sse3787100 0.4 1014255
13 may, thu
thu1300:00+12se368568 0.0 1014155
03:00+9ese338569 0.0 101441
06:00+9e468915 0.0 1013103
09:00+17ese6871100 0.0 1012586
12:00+22se7850100 0.0 10111194
15:00+23se7844100 0.0 10101280
18:00+22se69515 0.0 1010822
21:00+16se498085 0.0 1010137